Location: *
(32.8140°S, 174.6161°E)
Time: 06:37:04
(UTC+00:00)

Meteor 1-28 Rocket - Pass Details

Date: 10 December 2019
Orbit: 505 x 522 km, 97.3° (Epoch: 23 January)

Event Time Altitude Azimuth Distance (km) Brightness Sun altitude
Rises 15:57:34 0° 160° (SSE) 2,660 7.9 -12.9°
Reaches altitude 10° 15:59:47 10° 152° (SSE) 1,761 7.0 -12.6°
Maximum altitude 16:03:23 40° 82° (E) 774 4.5 -12.0°
Drops below altitude 10° 16:06:54 10° 11° (N) 1,726 5.6 -11.4°
Enters shadow 16:08:53 - 3° (N) 2,534 6.4 -11.0°
